TimeCST,TemperatureF,Dew PointF,Humidity,Sea Level PressureIn,VisibilityMPH,Wind Direction,Wind SpeedMPH,Gust SpeedMPH,PrecipitationIn,Events,Conditions,WindDirDegrees,DateUTC
3:00 AM,79,76,88,29.84,12,East,3.5,,,,Scattered Clouds,100,2013-09-27 09:00:00
5:00 AM,78.8,77.0,94,29.85,6.2,Calm,Calm,-,N/A,,Partly Cloudy,0,2013-09-27 11:00:00
6:00 AM,78,77,94,29.87,16,Calm,Calm,,,,Partly Cloudy,,2013-09-27 12:00:00
6:00 AM,78.8,77.0,94,29.86,6.2,Calm,Calm,-,N/A,,Scattered Clouds,0,2013-09-27 12:00:00
7:00 AM,82.4,78.8,89,29.89,6.2,Calm,Calm,-,N/A,,Scattered Clouds,0,2013-09-27 13:00:00
8:00 AM,86.0,77.0,74,29.91,6.2,ESE,5.8,-,N/A,,Scattered Clouds,110,2013-09-27 14:00:00
9:00 AM,87,78,68,29.93,16,East,5.8,,,,Partly Cloudy,90,2013-09-27 15:00:00
9:00 AM,87.8,77.0,70,29.92,6.2,East,5.8,-,N/A,,Scattered Clouds,90,2013-09-27 15:00:00
10:00 AM,86.0,78.8,79,29.92,6.2,East,6.9,-,N/A,,Scattered Clouds,80,2013-09-27 16:00:00
11:00 AM,87.8,77.0,70,29.90,6.2,ENE,9.2,-,N/A,,Scattered Clouds,70,2013-09-27 17:00:00
12:00 PM,87,78,67,29.89,16,East,8.1,,,,Partly Cloudy,90,2013-09-27 18:00:00
12:00 PM,87.8,77.0,70,29.88,6.2,East,8.1,-,N/A,,Scattered Clouds,90,2013-09-27 18:00:00
1:00 PM,89.6,78.8,70,29.86,6.2,ENE,9.2,-,N/A,,Scattered Clouds,70,2013-09-27 19:00:00
2:00 PM,87.8,78.8,75,29.84,6.2,East,9.2,-,N/A,Rain,Light Rain Showers,80,2013-09-27 20:00:00
3:00 PM,88,78,65,29.84,16,East,10.4,,,Rain,Light Rain Showers,80,2013-09-27 21:00:00
3:00 PM,87.8,78.8,75,29.83,6.2,East,10.4,-,N/A,,Scattered Clouds,80,2013-09-27 21:00:00
4:00 PM,87.8,77.0,70,29.83,6.2,East,8.1,-,N/A,,Partly Cloudy,80,2013-09-27 22:00:00
5:00 PM,86.0,77.0,74,29.83,6.2,East,8.1,-,N/A,,Scattered Clouds,90,2013-09-27 23:00:00
6:00 PM,84,79,81,29.85,16,East,5.8,,,,Partly Cloudy,90,2013-09-28 00:00:00
6:00 PM,84.2,77.0,79,29.83,6.2,East,5.8,-,N/A,,Partly Cloudy,90,2013-09-28 00:00:00
9:00 PM,82,77,80,29.91,16,East,4.6,,,,Scattered Clouds,100,2013-09-28 03:00:00
9:00 PM,82.4,77.0,84,29.89,6.2,East,4.6,-,N/A,,Partly Cloudy,100,2013-09-28 03:00:00